| time (UTC) | temp C | wind direction | speed KPH | gust KPH | rain 1hr cm | rain 24hr cm | rain mn cm | humidity % | barometer mb |
| 20260510214601 | 33 | 157 | 8.0 | 19.3 | 0.00 | 0.00 | 0.00 | 18 | 1004.4 |
| 20260510213059 | 33 | 194 | 1.6 | 8.0 | 0.00 | 0.00 | 0.00 | 12 | 1004.1 |
| 20260510211552 | 32 | 189 | 4.8 | 17.7 | 0.00 | 0.00 | 0.00 | 12 | 1004.3 |
| 20260510210051 | 32 | 71 | 1.6 | 14.5 | 0.00 | 0.00 | 0.00 | 14 | 1004.4 |
| 20260510204556 | 32 | 71 | 1.6 | 16.1 | 0.00 | 0.00 | 0.00 | 15 | 1004.6 |
| 20260510203046 | 31 | 71 | 3.2 | 12.9 | 0.00 | 0.00 | 0.00 | 15 | 1004.8 |
| 20260510201548 | 31 | 71 | 6.4 | 19.3 | 0.00 | 0.00 | 0.00 | 16 | 1005.0 |
| 20260510200044 | 31 | 360 | 3.2 | 9.7 | 0.00 | 0.00 | 0.00 | 16 | 1005.1 |
| 20260510194544 | 31 | 360 | 3.2 | 9.7 | 0.00 | 0.00 | 0.00 | 17 | 1005.3 |
| 20260510193044 | 30 | 9 | 1.6 | 14.5 | 0.00 | 0.00 | 0.00 | 18 | 1005.4 |
| 20260510191541 | 30 | 360 | 4.8 | 16.1 | 0.00 | 0.00 | 0.00 | 18 | 1005.5 |
| 20260510190040 | 30 | 351 | 6.4 | 17.7 | 0.00 | 0.00 | 0.00 | 16 | 1005.6 |
| 20260510184544 | 30 | 355 | 0.0 | 16.1 | 0.00 | 0.00 | 0.00 | 16 | 1005.7 |
| 20260510183039 | 31 | 337 | 0.0 | 14.5 | 0.00 | 0.00 | 0.00 | 13 | 1005.7 |
| 20260510181600 | 31 | 334 | 0.0 | 12.9 | 0.00 | 0.00 | 0.00 | 13 | 1005.8 |
| 20260510180059 | 30 | 336 | 0.0 | 14.5 | 0.00 | 0.00 | 0.00 | 13 | 1006.0 |
| 20260510174536 | 30 | 345 | 3.2 | 14.5 | 0.00 | 0.00 | 0.00 | 13 | 1006.0 |
| 20260510173035 | 30 | 342 | 0.0 | 16.1 | 0.00 | 0.00 | 0.00 | 13 | 1006.0 |
| 20260510171540 | 31 | 355 | 1.6 | 12.9 | 0.00 | 0.00 | 0.00 | 13 | 1006.1 |
| 20260510170030 | 30 | 26 | 3.2 | 16.1 | 0.00 | 0.00 | 0.00 | 14 | 1006.0 |
| 20260510164528 | 30 | 25 | 3.2 | 17.7 | 0.00 | 0.00 | 0.00 | 14 | 1006.0 |
| 20260510163025 | 29 | 5 | 3.2 | 19.3 | 0.00 | 0.00 | 0.00 | 14 | 1005.7 |
| 20260510161518 | 29 | 25 | 1.6 | 20.9 | 0.00 | 0.00 | 0.00 | 15 | 1005.8 |
| 20260510160015 | 28 | 21 | 0.0 | 16.1 | 0.00 | 0.00 | 0.00 | 15 | 1005.8 |
| 20260510154511 | 28 | 14 | 3.2 | 19.3 | 0.00 | 0.00 | 0.00 | 15 | 1005.8 |
| 20260510153007 | 28 | 325 | 3.2 | 19.3 | 0.00 | 0.00 | 0.00 | 15 | 1005.6 |
| 20260510151501 | 27 | 5 | 3.2 | 12.9 | 0.00 | 0.00 | 0.00 | 15 | 1005.5 |
| 20260510150124 | 27 | 288 | 3.2 | 17.7 | 0.00 | 0.00 | 0.00 | 15 | 1005.4 |
| 20260510144553 | 27 | 257 | 1.6 | 14.5 | 0.00 | 0.00 | 0.00 | 15 | 1005.4 |
| 20260510143048 | 26 | 166 | 0.0 | 3.2 | 0.00 | 0.00 | 0.00 | 17 | 1005.4 |
| 20260510141544 | 26 | 166 | 0.0 | 1.6 | 0.00 | 0.00 | 0.00 | 18 | 1005.3 |
| 20260510140039 | 25 | 194 | 0.0 | 0.0 | 0.00 | 0.00 | 0.00 | 18 | 1004.8 |
| 20260510134536 | 23 | 194 | 0.0 | 1.6 | 0.00 | 0.00 | 0.00 | 19 | 1004.5 |
| 20260510133030 | 22 | 194 | 0.0 | 0.0 | 0.00 | 0.00 | 0.00 | 20 | 1004.2 |
| 20260510131527 | 21 | 194 | 0.0 | 0.0 | 0.00 | 0.00 | 0.00 | 21 | 1004.0 |
| 20260510130025 | 21 | 194 | 0.0 | 0.0 | 0.00 | 0.00 | 0.00 | 21 | 1003.9 |
| 20260510124528 | 20 | 217 | 0.0 | 0.0 | 0.00 | 0.00 | 0.00 | 21 | 1003.7 |
| 20260510123019 | 19 | 217 | 0.0 | 0.0 | 0.00 | 0.00 | 0.00 | 20 | 1003.5 |
| 20260510121515 | 19 | 217 | 0.0 | 0.0 | 0.00 | 0.00 | 0.00 | 20 | 1003.4 |
| 20260510120021 | 19 | 213 | 0.0 | 0.0 | 0.00 | 0.00 | 0.00 | 20 | 1003.0 |
| 20260510114516 | 20 | 213 | 0.0 | 0.0 | 0.00 | 0.00 | 0.00 | 20 | 1002.7 |
| 20260510113008 | 20 | 213 | 0.0 | 1.6 | 0.00 | 0.00 | 0.00 | 19 | 1002.6 |
| 20260510111507 | 21 | 215 | 0.0 | 4.8 | 0.00 | 0.00 | 0.00 | 19 | 1002.4 |
| 20260510110005 | 20 | 213 | 0.0 | 0.0 | 0.00 | 0.00 | 0.00 | 21 | 1002.2 |
| 20260510104503 | 20 | 213 | 0.0 | 1.6 | 0.00 | 0.00 | 0.00 | 21 | 1002.1 |
| 20260510103001 | 20 | 213 | 0.0 | 0.0 | 0.00 | 0.00 | 0.00 | 20 | 1002.0 |
| 20260510101600 | 21 | 213 | 0.0 | 0.0 | 0.00 | 0.00 | 0.00 | 19 | 1002.0 |
| 20260510100057 | 21 | 213 | 0.0 | 0.0 | 0.00 | 0.00 | 0.00 | 19 | 1002.0 |
| 20260510094610 | 21 | 213 | 0.0 | 0.0 | 0.00 | 0.00 | 0.00 | 19 | 1001.9 |
| 20260510093111 | 21 | 213 | 0.0 | 0.0 | 0.00 | 0.00 | 0.00 | 19 | 1001.7 |
| 20260510091554 | 21 | 213 | 0.0 | 0.0 | 0.00 | 0.00 | 0.00 | 18 | 1001.6 |
| 20260510090054 | 21 | 213 | 0.0 | 0.0 | 0.00 | 0.00 | 0.00 | 18 | 1001.7 |
| 20260510084551 | 21 | 213 | 0.0 | 0.0 | 0.00 | 0.00 | 0.00 | 19 | 1001.8 |
| 20260510083100 | 22 | 213 | 0.0 | 1.6 | 0.00 | 0.00 | 0.00 | 18 | 1001.5 |
| 20260510081544 | 23 | 213 | 0.0 | 3.2 | 0.00 | 0.00 | 0.00 | 17 | 1001.7 |
| 20260510080045 | 23 | 213 | 0.0 | 0.0 | 0.00 | 0.00 | 0.00 | 15 | 1001.7 |
| 20260510074547 | 25 | 213 | 0.0 | 0.0 | 0.00 | 0.00 | 0.00 | 14 | 1001.8 |
| 20260510073051 | 25 | 213 | 0.0 | 1.6 | 0.00 | 0.00 | 0.00 | 13 | 1001.8 |
| 20260510071540 | 25 | 213 | 0.0 | 3.2 | 0.00 | 0.00 | 0.00 | 14 | 1001.9 |
| 20260510070039 | 23 | 213 | 0.0 | 0.0 | 0.00 | 0.00 | 0.00 | 15 | 1001.9 |
| 20260510064537 | 23 | 213 | 0.0 | 0.0 | 0.00 | 0.00 | 0.00 | 15 | 1001.9 |
| 20260510063034 | 23 | 213 | 0.0 | 0.0 | 0.00 | 0.00 | 0.00 | 15 | 1001.9 |
| 20260510061534 | 24 | 213 | 0.0 | 0.0 | 0.00 | 0.00 | 0.00 | 15 | 1001.9 |
| 20260510060039 | 24 | 213 | 0.0 | 0.0 | 0.00 | 0.00 | 0.00 | 15 | 1001.9 |
| 20260510054536 | 25 | 213 | 0.0 | 0.0 | 0.00 | 0.00 | 0.00 | 15 | 1001.9 |
| 20260510053028 | 25 | 213 | 0.0 | 0.0 | 0.00 | 0.00 | 0.00 | 15 | 1001.9 |
| 20260510051528 | 25 | 213 | 0.0 | 0.0 | 0.00 | 0.00 | 0.00 | 15 | 1001.9 |
| 20260510050027 | 25 | 213 | 0.0 | 0.0 | 0.00 | 0.00 | 0.00 | 14 | 1001.8 |
| 20260510044527 | 26 | 213 | 0.0 | 0.0 | 0.00 | 0.00 | 0.00 | 14 | 1001.8 |
| 20260510043028 | 27 | 213 | 0.0 | 0.0 | 0.00 | 0.00 | 0.00 | 13 | 1001.8 |
| 20260510041525 | 27 | 213 | 0.0 | 1.6 | 0.00 | 0.00 | 0.00 | 12 | 1001.7 |
| 20260510040026 | 28 | 213 | 0.0 | 0.0 | 0.00 | 0.00 | 0.00 | 12 | 1001.6 |
| 20260510034525 | 28 | 213 | 0.0 | 3.2 | 0.00 | 0.00 | 0.00 | 12 | 1001.6 |
| 20260510033024 | 28 | 213 | 0.0 | 4.8 | 0.00 | 0.00 | 0.00 | 12 | 1001.4 |
| 20260510031524 | 28 | 213 | 0.0 | 4.8 | 0.00 | 0.00 | 0.00 | 12 | 1001.3 |
| 20260510030024 | 28 | 213 | 0.0 | 0.0 | 0.00 | 0.00 | 0.00 | 12 | 1001.1 |
| 20260510024523 | 29 | 213 | 0.0 | 0.0 | 0.00 | 0.00 | 0.00 | 11 | 1000.8 |
| 20260510023023 | 30 | 213 | 0.0 | 0.0 | 0.00 | 0.00 | 0.00 | 11 | 1000.6 |
| 20260510021526 | 30 | 213 | 0.0 | 3.2 | 0.00 | 0.00 | 0.00 | 11 | 1000.3 |
| 20260510020022 | 31 | 213 | 0.0 | 3.2 | 0.00 | 0.00 | 0.00 | 10 | 1000.2 |
| 20260510014524 | 31 | 236 | 0.0 | 6.4 | 0.00 | 0.00 | 0.00 | 9 | 1000.1 |
| 20260510013021 | 31 | 234 | 0.0 | 4.8 | 0.00 | 0.00 | 0.00 | 9 | 1000.0 |
| 20260510011520 | 32 | 234 | 0.0 | 4.8 | 0.00 | 0.00 | 0.00 | 8 | 1000.0 |
| 20260510010019 | 32 | 234 | 0.0 | 6.4 | 0.00 | 0.00 | 0.00 | 9 | 1000.0 |
| 20260510004519 | 32 | 232 | 0.0 | 8.0 | 0.00 | 0.00 | 0.00 | 8 | 1000.0 |
| 20260510003033 | 33 | 231 | 3.2 | 8.0 | 0.00 | 0.00 | 0.00 | 8 | 1000.1 |
| 20260510001522 | 33 | 230 | 4.8 | 12.9 | 0.00 | 0.00 | 0.00 | 8 | 1000.1 |
| 20260510000015 | 33 | 236 | 1.6 | 11.3 | 0.00 | 0.00 | 0.00 | 7 | 1000.2 |
| 20260509234524 | 34 | 236 | 1.6 | 8.0 | 0.00 | 0.00 | 0.00 | 7 | 1000.4 |
| 20260509233012 | 33 | 229 | 4.8 | 12.9 | 0.00 | 0.00 | 0.00 | 8 | 1000.4 |
| 20260509231514 | 33 | 215 | 4.8 | 11.3 | 0.00 | 0.00 | 0.00 | 8 | 1000.4 |
| 20260509230010 | 33 | 211 | 1.6 | 12.9 | 0.00 | 0.00 | 0.00 | 8 | 1000.5 |
| 20260509224508 | 34 | 233 | 4.8 | 14.5 | 0.00 | 0.00 | 0.00 | 9 | 1000.8 |
| 20260509223007 | 33 | 219 | 3.2 | 16.1 | 0.00 | 0.00 | 0.00 | 9 | 1000.8 |
| 20260509221505 | 33 | 219 | 3.2 | 11.3 | 0.00 | 0.00 | 0.00 | 9 | 1001.2 |